Location: Oso Ridge
(35.0450°N, 108.0864°W)
Time: 13:15:55
(UTC-07:00)

Amateur Radio Satellites - All Passes

Search period start: 19 December 2014 12:45
Search period end: 20 December 2014 12:45
Location: Oso Ridge, 35.0450°N, 108.0864°W

Satellite Date Start Highest point End Downlink Frequencies (MHz)
Time Altitude Azimuth
BEESAT 2 19 Dec 12:49:05 12:52:27 25° 111° (ESE) 12:55:52 435.950
M-CUBED/EXP-1 PRIME 19 Dec 13:11:21 13:12:05 10° 94° (E) 13:12:49 437.505
JUGNU 19 Dec 13:15:54 13:19:40 17° 175° (S) 13:23:25 437.505
RS-15 19 Dec 13:34:53 13:44:57 41° 312° (NW) 13:55:08 29.354- 29.394
PCSat 19 Dec 13:39:41 13:44:58 58° 112° (ESE) 13:50:17 145.827
Gurwin Techsat 1B 19 Dec 13:41:16 13:46:19 47° 72° (ENE) 13:51:23 435.225
Oscar 19 19 Dec 13:41:29 13:46:09 36° 262° (W) 13:50:53 437.125/150
YUBILEINY 19 Dec 13:41:39 13:44:40 12° 283° (WNW) 13:47:42 435.215
SPROUT 19 Dec 13:44:01 13:46:03 13° 294° (WNW) 13:48:05 437.525
TISAT 1 19 Dec 13:45:34 13:46:59 12° 294° (WNW) 13:48:24 437.305
AIST 2 19 Dec 13:46:57 13:51:01 52° 115° (ESE) 13:55:11 435.215
BEESAT 3 19 Dec 13:47:43 13:51:44 56° 301° (WNW) 13:55:49 437.485
ITUPSAT 1 19 Dec 13:52:52 13:57:39 82° 284° (WNW) 14:02:24 437.325
SWISSCUBE 19 Dec 13:52:59 13:57:44 73° 285° (WNW) 14:02:27 437.505
ITAMSAT 1 19 Dec 13:53:41 13:58:52 77° 257° (WSW) 14:04:04 435.822/435.867
STARS 19 Dec 14:06:11 14:09:02 17° 94° (E) 14:11:52 437.465
KKS-1 19 Dec 14:06:17 14:10:02 26° 97° (E) 14:13:46 437.445
ISS 19 Dec 14:14:39 14:17:48 41° 322° (NW) 14:20:57 145.825
SRMSAT 19 Dec 14:17:10 14:20:37 16° 172° (S) 14:24:03 437.500
BEESAT 19 Dec 14:18:30 14:22:58 42° 288° (WNW) 14:27:25 436.000
AUBIESAT-1 19 Dec 14:18:32 14:22:50 69° 106° (ESE) 14:26:43 437.475
BEESAT 2 19 Dec 14:27:12 14:30:36 25° 307° (NW) 14:34:04 435.950
HORYU 2 19 Dec 14:31:03 14:35:23 55° 74° (ENE) 14:39:46 437.375
JAS-2 19 Dec 14:37:28 14:39:01 11° 59° (ENE) 14:40:33 435.910
M-CUBED/EXP-1 PRIME 19 Dec 14:43:17 14:47:31 51° 291° (WNW) 14:51:23 437.505
AO-7 19 Dec 14:49:41 14:57:29 47° 65° (ENE) 15:05:19 29.400- 29.500
JUGNU 19 Dec 15:04:12 15:07:58 17° 185° (S) 15:11:44 437.505
Gurwin Techsat 1B 19 Dec 15:22:55 15:26:28 18° 266° (W) 15:30:03 435.225
PCSat 19 Dec 15:25:02 15:28:45 19° 309° (NW) 15:32:29 145.827
AIST 2 19 Dec 15:27:33 15:29:57 15° 312° (NW) 15:32:23 435.215
GONETS M04 19 Dec 15:40:13 15:46:40 22° 69° (ENE) 15:53:03
STARS 19 Dec 15:41:31 15:45:35 36° 288° (WNW) 15:49:39 437.465
KKS-1 19 Dec 15:42:57 15:46:32 24° 291° (WNW) 15:50:07 437.445
AIST 1 19 Dec 15:50:49 15:54:07 21° 89° (E) 15:57:25
RS-15 19 Dec 15:56:45 16:01:40 14° 343° (NNW) 16:06:39 29.354- 29.394
SRMSAT 19 Dec 16:05:12 16:09:04 18° 182° (S) 16:12:56 437.500
HORYU 2 19 Dec 16:11:07 16:12:21 11° 268° (W) 16:13:35 437.375
JAS-2 19 Dec 16:15:15 16:22:55 66° 74° (ENE) 16:30:01 435.910
Cubesat XI-IV 19 Dec 16:41:13 16:45:01 20° 66° (ENE) 16:48:50 437.490
AO-7 19 Dec 16:42:56 16:50:18 35° 261° (W) 16:57:45 29.400- 29.500
MOZHAYETS 4 19 Dec 16:43:01 16:47:24 41° 98° (E) 16:51:43
JUGNU 19 Dec 16:54:43 16:56:14 11° 195° (SSW) 16:57:46 437.505
CUTE-I 19 Dec 17:13:28 17:18:25 41° 71° (ENE) 17:23:21 437.470
AIST 1 19 Dec 17:27:56 17:31:36 26° 283° (WNW) 17:35:16
GONETS M04 19 Dec 17:35:30 17:44:10 69° 268° (W) 17:52:45
STRAND 1 19 Dec 17:48:24 17:50:03 11° 92° (E) 17:51:43 437.568
PRISM 19 Dec 17:52:50 17:56:31 31° 98° (E) 18:00:10 437.425
SRMSAT 19 Dec 17:54:54 17:57:30 13° 192° (SSW) 18:00:06 437.500
JAS-2 19 Dec 18:02:31 18:08:10 22° 266° (W) 18:13:35 435.910
CUBESAT XI-V 19 Dec 18:03:35 18:06:57 20° 94° (E) 18:10:19 437.345
RS-15 19 Dec 18:15:07 18:21:11 16° 23° (NNE) 18:27:21 29.354- 29.394
Cubesat XI-IV 19 Dec 18:19:41 18:24:45 44° 261° (W) 18:29:50 437.490
MOZHAYETS 4 19 Dec 18:21:21 18:24:15 17° 293° (WNW) 18:27:07
MaSat-1 19 Dec 18:44:53 18:47:19 67° 67° (ENE) 18:49:54 437.345
CUTE-I 19 Dec 18:54:36 18:58:34 21° 265° (W) 19:02:33 437.470
BRITE-PL 19 Dec 19:18:32 19:20:38 14° 68° (ENE) 19:22:43 437.365/2234.400
DANDE 19 Dec 19:19:54 19:24:53 18° 69° (ENE) 19:30:11 436.750
STRAND 1 19 Dec 19:24:35 19:29:38 66° 286° (WNW) 19:34:40 437.568
CANX-2 19 Dec 19:25:05 19:27:52 17° 68° (ENE) 19:30:40 2200.000
HO-68 19 Dec 19:25:57 19:32:19 36° 66° (ENE) 19:38:41 435.675
PRISM 19 Dec 19:29:01 19:31:48 18° 292° (WNW) 19:34:33 437.425
CUBESAT XI-V 19 Dec 19:40:20 19:44:25 32° 289° (WNW) 19:48:28 437.345
GOMX 1 19 Dec 19:49:10 19:52:19 21° 70° (ENE) 19:55:29 467.674
COMPASS 1 19 Dec 19:49:22 19:52:32 21° 70° (ENE) 19:55:44 437.405
SEEDS 19 Dec 19:53:01 19:56:37 28° 71° (ENE) 20:00:15 437.485
CUTE 1.7 + AOD 2 19 Dec 19:54:49 19:58:40 34° 72° (ENE) 20:02:33 437.475
SO-50 19 Dec 20:04:46 20:07:37 17° 108° (ESE) 20:10:31 436.795
DX 1 19 Dec 20:06:13 20:07:35 11° 65° (ENE) 20:08:58 434.975-435.025
DELFI C3 19 Dec 20:13:15 20:15:16 13° 67° (ENE) 20:17:18 145.870
CUSAT 1 19 Dec 20:14:28 20:22:03 50° 78° (ENE) 20:30:15 437.405
DOVE 4 19 Dec 20:18:31 20:22:15 34° 72° (ENE) 20:26:01 437.250
RS-15 19 Dec 20:26:30 20:37:20 49° 52° (NE) 20:48:35 29.354- 29.394
Oscar 11 19 Dec 20:28:00 20:31:35 26° 70° (ENE) 20:35:10 145.826/435.025
UKube-1 19 Dec 20:35:59 20:39:30 25° 70° (ENE) 20:43:01 .
CUBEBUG 2 19 Dec 20:41:27 20:44:37 21° 69° (ENE) 20:47:50 437.445
ISS 19 Dec 20:45:23 20:48:33 47° 39° (NE) 20:51:43 145.825
AAUSAT CUBESAT 2 19 Dec 20:49:06 20:53:18 82° 258° (WSW) 20:57:32 437.432
CINEMA 3 19 Dec 20:50:49 20:54:46 47° 74° (ENE) 20:58:49 145.822/145.860
BRITE-PL 19 Dec 20:54:53 20:58:50 38° 261° (W) 21:02:43 437.365/2234.400
VELOX 1 19 Dec 20:55:58 20:58:06 13° 66° (ENE) 21:00:13 145.980
ZACube-1 19 Dec 20:56:10 20:59:26 23° 70° (ENE) 21:02:44 437.345
CANX-2 19 Dec 20:59:39 21:03:30 34° 263° (W) 21:07:25 2200.000
DANDE 19 Dec 21:01:06 21:08:58 89° 83° (E) 21:17:43 436.750
HO-68 19 Dec 21:13:16 21:19:51 39° 261° (W) 21:26:29 435.675
UWE-3 19 Dec 21:20:37 21:24:39 54° 75° (ENE) 21:28:48 435.000/436.395/437.385
FUNcube-1 19 Dec 21:22:22 21:26:20 46° 74° (ENE) 21:30:24 145.935
COMPASS 1 19 Dec 21:24:32 21:28:05 26° 264° (W) 21:31:40 437.405
GOMX 1 19 Dec 21:27:00 21:30:21 23° 264° (W) 21:33:42 467.674
SEEDS 19 Dec 21:29:18 21:32:24 20° 265° (W) 21:35:33 437.485
CUTE 1.7 + AOD 2 19 Dec 21:31:59 21:34:39 16° 266° (W) 21:37:21 437.475
AISAT 19 Dec 21:36:20 21:40:26 39° 72° (ENE) 21:44:33 437.250
DX 1 19 Dec 21:39:03 21:43:19 56° 259° (W) 21:47:35 434.975-435.025
SO-50 19 Dec 21:43:28 21:47:45 42° 304° (NW) 21:52:11 436.795
DELFI C3 19 Dec 21:46:16 21:50:08 41° 261° (W) 21:54:03 145.870
CUBEBUG 1 19 Dec 21:47:04 21:50:00 18° 68° (ENE) 21:52:55 437.445
50 SAT 19 Dec 21:48:20 21:52:06 41° 74° (ENE) 21:55:54 437.505
ANTELSAT 19 Dec 21:49:57 21:52:56 17° 93° (E) 21:55:54 437.575/2403.000
DOVE 4 19 Dec 21:57:49 22:00:09 15° 267° (W) 22:02:29 437.250
CUSAT 1 19 Dec 21:58:00 22:04:53 34° 271° (W) 22:12:14 437.405
HUMSAT D 19 Dec 22:02:57 22:07:03 84° 77° (ENE) 22:11:14 437.325/437.525
Oscar 11 19 Dec 22:04:15 22:07:39 23° 265° (W) 22:11:05 145.826/435.025
QB50P1 19 Dec 22:08:56 22:11:22 15° 94° (E) 22:13:48 145.935-145.965
BEESAT 3 19 Dec 22:10:42 22:14:27 31° 55° (NE) 22:18:08 437.485
UKube-1 19 Dec 22:12:02 22:15:32 24° 263° (W) 22:19:03 .
AIST 2 19 Dec 22:13:07 22:15:41 15° 49° (NE) 22:18:14 435.215
CUBEBUG 2 19 Dec 22:17:45 22:21:10 25° 264° (W) 22:24:40 437.445
ISS 19 Dec 22:23:17 22:24:48 13° 233° (SW) 22:26:18 145.825
TIGRISAT 19 Dec 22:24:52 22:29:17 40° 98° (E) 22:33:42 435.000
ESTCUBE 1 19 Dec 22:28:55 22:33:23 59° 75° (ENE) 22:37:51 437.505/2401.250
VELOX 1 19 Dec 22:29:57 22:34:13 48° 260° (W) 22:38:31 145.980
CINEMA 3 19 Dec 22:31:20 22:32:16 11° 269° (W) 22:33:12 145.822/145.860
PCSat 19 Dec 22:31:24 22:35:48 25° 54° (NE) 22:40:10 145.827
ZACube-1 19 Dec 22:32:19 22:35:41 24° 264° (W) 22:39:06 437.345
POPSAT HIP 1 19 Dec 22:36:19 22:40:09 32° 98° (E) 22:43:58 437.405
RS-15 19 Dec 22:39:02 22:49:37 47° 251° (WSW) 23:00:41 29.354- 29.394
YUBILEINY 19 Dec 22:43:20 22:49:44 23° 82° (E) 22:56:06 435.215
DANDE 19 Dec 22:46:54 22:51:43 17° 275° (W) 22:56:48 436.750
BEESAT 2 19 Dec 22:49:26 22:53:37 77° 61° (ENE) 22:57:44 435.950
UNISAT 6 19 Dec 22:53:19 22:58:03 86° 103° (ESE) 23:02:47 437.425
TISAT 1 19 Dec 22:57:34 23:01:02 26° 71° (ENE) 23:04:30 437.305
SPROUT 19 Dec 22:58:03 23:01:28 24° 70° (ENE) 23:04:54 437.525
FUNcube-1 19 Dec 23:01:37 23:02:57 11° 268° (W) 23:04:16 145.935
DUCHIFAT 1 19 Dec 23:04:28 23:08:43 72° 102° (ESE) 23:12:58 145.980
BUGSAT 1 19 Dec 23:07:51 23:11:52 61° 101° (E) 23:15:54 437.445
AISAT 19 Dec 23:14:36 23:17:11 15° 266° (W) 23:19:47 437.250
QB50P2 19 Dec 23:17:22 23:21:38 77° 284° (WNW) 23:25:54 145.880/145.840
CUBEBUG 1 19 Dec 23:22:06 23:26:05 34° 262° (W) 23:30:04 437.445
ANTELSAT 19 Dec 23:25:24 23:29:51 42° 287° (WNW) 23:34:17 437.575/2403.000
POLYITAN 1 19 Dec 23:25:55 23:30:09 61° 285° (WNW) 23:34:23 437.675
50 SAT 19 Dec 23:26:04 23:27:30 12° 268° (W) 23:28:57 437.505
NANOSAT C BR1 19 Dec 23:28:58 23:33:08 56° 285° (WNW) 23:37:19 145.865
QB50P1 19 Dec 23:43:26 23:47:22 37° 287° (WNW) 23:51:18 145.935-145.965
BEESAT 19 Dec 23:46:23 23:48:55 14° 65° (ENE) 23:51:27 436.000
BEESAT 3 19 Dec 23:49:25 23:52:23 19° 250° (WSW) 23:55:19 437.485
AIST 2 19 Dec 23:50:27 23:54:35 49° 245° (WSW) 23:58:38 435.215
M-CUBED/EXP-1 PRIME 19 Dec 23:56:40 23:58:52 13° 59° (ENE) 00:01:04 437.505
TIGRISAT 20 Dec 00:02:31 00:05:42 18° 292° (WNW) 00:08:53 435.000
ESTCUBE 1 20 Dec 00:09:38 00:10:34 11° 268° (W) 00:11:29 437.505/2401.250
POPSAT HIP 1 20 Dec 00:12:52 00:15:47 18° 292° (WNW) 00:18:42 437.405
PCSat 20 Dec 00:14:16 00:19:19 41° 250° (WSW) 00:24:21 145.827
TISAT 1 20 Dec 00:33:34 00:36:47 21° 264° (W) 00:40:01 437.305
SPROUT 20 Dec 00:34:00 00:37:27 24° 264° (W) 00:40:54 437.525
YUBILEINY 20 Dec 00:37:05 00:45:44 64° 279° (W) 00:54:23 435.215
O/OREOS (USA 219) 20 Dec 00:39:58 00:44:23 73° 108° (ESE) 00:48:50 437.305
SWISSCUBE 20 Dec 00:56:15 01:01:04 88° 77° (ENE) 01:05:53 437.505
ITUPSAT 1 20 Dec 00:56:24 01:01:12 80° 76° (ENE) 01:06:01 437.325
KKS-1 20 Dec 01:02:34 01:05:22 17° 67° (ENE) 01:08:11 437.445
STARS 20 Dec 01:02:52 01:03:33 10° 64° (ENE) 01:04:14 437.465
AUBIESAT-1 20 Dec 01:03:29 01:08:10 58° 70° (ENE) 01:12:59 437.475
BEESAT 20 Dec 01:21:36 01:26:16 53° 260° (W) 01:30:58 436.000
M-CUBED/EXP-1 PRIME 20 Dec 01:28:27 01:33:12 70° 254° (WSW) 01:38:07 437.505
VERMONT LUNAR 20 Dec 01:44:08 01:46:11 15° 142° (SE) 01:48:13 437.305
PHONESAT 2.4 20 Dec 01:55:17 01:56:30 11° 141° (SE) 01:57:42 2401.200-2431.200
Oscar 19 20 Dec 01:55:48 02:01:01 78° 284° (WNW) 02:06:11 437.125/150
Gurwin Techsat 1B 20 Dec 02:01:21 02:05:37 24° 95° (E) 02:09:51 435.225
ITAMSAT 1 20 Dec 02:09:59 02:14:59 49° 100° (E) 02:19:59 435.822/435.867
HORYU 2 20 Dec 02:27:32 02:29:56 14° 93° (E) 02:32:19 437.375
STARS 20 Dec 02:35:08 02:39:27 62° 259° (WSW) 02:43:48 437.465
KKS-1 20 Dec 02:37:34 02:41:40 38° 261° (W) 02:45:48 437.445
AUBIESAT-1 20 Dec 02:41:01 02:43:23 14° 264° (W) 02:45:48 437.475
AO-7 20 Dec 02:56:51 03:01:48 17° 93° (E) 03:06:41 29.400- 29.500
VERMONT LUNAR 20 Dec 03:20:36 03:24:08 83° 155° (SSE) 03:27:40 437.305
PHONESAT 2.4 20 Dec 03:31:08 03:34:43 65° 154° (SSE) 03:38:19 2401.200-2431.200
AIST 1 20 Dec 03:37:53 03:42:04 53° 81° (E) 03:46:13
Gurwin Techsat 1B 20 Dec 03:40:48 03:45:35 35° 290° (WNW) 03:50:20 435.225
MOZHAYETS 4 20 Dec 03:42:12 03:46:06 27° 70° (ENE) 03:50:02
ITAMSAT 1 20 Dec 03:50:43 03:54:02 18° 295° (WNW) 03:57:22 435.822/435.867
HORYU 2 20 Dec 04:02:28 04:06:46 44° 287° (WNW) 04:11:03 437.375
GONETS M04 20 Dec 04:37:11 04:44:21 29° 84° (E) 04:51:30
PRISM 20 Dec 04:41:31 04:44:12 17° 68° (ENE) 04:46:53 437.425
AO-7 20 Dec 04:46:56 04:55:21 85° 288° (WNW) 05:03:41 29.400- 29.500
VERMONT LUNAR 20 Dec 04:59:23 05:02:40 35° 352° (N) 05:05:57 437.305
STRAND 1 20 Dec 05:01:16 05:03:39 13° 63° (ENE) 05:06:03 437.568
CUBESAT XI-V 20 Dec 05:05:03 05:07:37 15° 66° (ENE) 05:10:11 437.345
PHONESAT 2.4 20 Dec 05:10:07 05:13:33 40° 349° (N) 05:17:00 2401.200-2431.200
JAS-2 20 Dec 05:14:37 05:20:11 72° 102° (ESE) 05:25:21 435.910
MOZHAYETS 4 20 Dec 05:19:28 05:23:14 24° 265° (W) 05:27:02
CUTE-I 20 Dec 05:34:35 05:38:31 21° 95° (E) 05:42:27 437.470
PRISM 20 Dec 06:15:33 06:19:25 35° 262° (W) 06:23:18 437.425
SO-50 20 Dec 06:17:38 06:22:32 69° 59° (ENE) 06:27:25 436.795
GONETS M04 20 Dec 06:32:02 06:40:36 54° 281° (W) 06:49:13
STRAND 1 20 Dec 06:37:11 06:42:15 65° 258° (WSW) 06:47:20 437.568
VERMONT LUNAR 20 Dec 06:38:09 06:41:27 37° 9° (N) 06:44:46 437.305
Cubesat XI-IV 20 Dec 06:40:00 06:45:20 85° 284° (WNW) 06:50:39 437.490
CUBESAT XI-V 20 Dec 06:40:06 06:44:37 48° 261° (W) 06:49:08 437.345
AO-7 20 Dec 06:42:03 06:46:53 17° 306° (NW) 06:51:44 29.400- 29.500
PHONESAT 2.4 20 Dec 06:49:20 06:52:42 35° 7° (N) 06:56:05 2401.200-2431.200
JAS-2 20 Dec 07:02:23 07:04:27 12° 300° (WNW) 07:06:28 435.910
CUTE-I 20 Dec 07:13:45 07:18:41 41° 289° (WNW) 07:23:37 437.470
SO-50 20 Dec 08:00:50 08:02:28 12° 254° (WSW) 08:04:06 436.795
MaSat-1 20 Dec 08:01:32 08:02:36 12° 108° (ESE) 08:03:38 437.345
VERMONT LUNAR 20 Dec 08:16:26 08:19:57 75° 205° (SSW) 08:23:29 437.305
DOVE 4 20 Dec 08:21:21 08:24:02 15° 93° (E) 08:26:46 437.250
PHONESAT 2.4 20 Dec 08:28:01 08:31:39 89° 27° (NNE) 08:35:17 2401.200-2431.200
AAUSAT CUBESAT 2 20 Dec 08:36:53 08:40:02 20° 95° (E) 08:43:10 437.432
HO-68 20 Dec 08:43:54 08:50:48 50° 101° (E) 08:57:39 435.675
CANX-2 20 Dec 08:48:06 08:52:20 51° 100° (E) 08:56:30 2200.000
CINEMA 3 20 Dec 08:49:34 08:52:42 17° 94° (E) 08:55:52 145.822/145.860
BRITE-PL 20 Dec 09:01:15 09:06:01 77° 102° (ESE) 09:11:11 437.365/2234.400
COMPASS 1 20 Dec 09:11:03 09:15:17 62° 101° (E) 09:19:28 437.405
UWE-3 20 Dec 09:15:00 09:17:48 16° 93° (E) 09:20:36 435.000/436.395/437.385
FUNcube-1 20 Dec 09:15:58 09:17:59 13° 92° (E) 09:20:00 145.935
SEEDS 20 Dec 09:16:00 09:20:19 87° 102° (ESE) 09:24:35 437.485
CUTE 1.7 + AOD 2 20 Dec 09:18:56 09:23:15 74° 284° (WNW) 09:27:31 437.475
TIGRISAT 20 Dec 09:21:27 09:24:51 23° 69° (ENE) 09:28:19 435.000
CUSAT 1 20 Dec 09:24:05 09:27:18 45° 92° (E) 09:31:30 437.405
POPSAT HIP 1 20 Dec 09:27:30 09:30:10 17° 68° (ENE) 09:32:51 437.405
GOMX 1 20 Dec 09:29:57 09:34:46 75° 284° (WNW) 09:39:54 467.674
DELFI C3 20 Dec 09:30:15 09:34:00 33° 98° (E) 09:37:43 145.870
DX 1 20 Dec 09:31:04 09:34:55 30° 98° (E) 09:38:44 434.975-435.025
UNISAT 6 20 Dec 09:49:29 09:53:39 49° 74° (ENE) 09:57:57 437.425
HUMSAT D 20 Dec 09:51:47 09:54:48 18° 94° (E) 09:57:49 437.325/437.525
Oscar 11 20 Dec 09:53:52 09:58:15 83° 102° (ESE) 10:02:36 145.826/435.025
DUCHIFAT 1 20 Dec 09:54:26 09:58:13 34° 72° (ENE) 10:02:01 145.980
BUGSAT 1 20 Dec 09:55:33 09:59:02 27° 71° (ENE) 10:02:30 437.445
VERMONT LUNAR 20 Dec 09:56:10 09:57:52 13° 218° (SW) 09:59:34 437.305
DOVE 4 20 Dec 09:57:16 10:01:56 52° 285° (WNW) 10:06:52 437.250
UKube-1 20 Dec 10:02:10 10:06:30 72° 102° (ESE) 10:10:49 .
QB50P2 20 Dec 10:07:22 10:11:27 51° 74° (ENE) 10:15:33 145.880/145.840
PHONESAT 2.4 20 Dec 10:07:32 10:10:01 18° 217° (SW) 10:12:30 2401.200-2431.200
CUBEBUG 2 20 Dec 10:10:56 10:15:37 81° 102° (ESE) 10:20:22 437.445
AAUSAT CUBESAT 2 20 Dec 10:12:04 10:15:39 27° 289° (WNW) 10:19:13 437.432
DANDE 20 Dec 10:14:17 10:17:24 44° 284° (WNW) 10:21:28 436.750
POLYITAN 1 20 Dec 10:15:59 10:20:09 65° 75° (ENE) 10:24:20 437.675
NANOSAT C BR1 20 Dec 10:18:31 10:22:41 69° 76° (ENE) 10:26:52 145.865
ANTELSAT 20 Dec 10:21:14 10:25:32 68° 259° (W) 10:29:59 437.575/2403.000
ZACube-1 20 Dec 10:23:09 10:27:43 80° 102° (ESE) 10:32:19 437.345
VELOX 1 20 Dec 10:24:05 10:28:14 39° 99° (E) 10:32:23 145.980
CINEMA 3 20 Dec 10:25:28 10:29:59 43° 286° (WNW) 10:34:38 145.822/145.860
CANX-2 20 Dec 10:26:05 10:27:46 12° 294° (WNW) 10:29:27 2200.000
ESTCUBE 1 20 Dec 10:26:31 10:29:15 16° 94° (E) 10:31:59 437.505/2401.250
HO-68 20 Dec 10:32:16 10:38:07 28° 297° (WNW) 10:43:57 435.675
QB50P1 20 Dec 10:32:50 10:37:02 78° 258° (WSW) 10:41:15 145.935-145.965
BRITE-PL 20 Dec 10:43:30 10:44:01 10° 294° (WNW) 10:44:31 437.365/2234.400
RS-15 20 Dec 10:46:50 10:56:40 40° 107° (ESE) 11:06:25 29.354- 29.394
UWE-3 20 Dec 10:50:06 10:54:27 43° 287° (WNW) 10:58:52 435.000/436.395/437.385
FUNcube-1 20 Dec 10:50:09 10:54:32 51° 286° (WNW) 10:58:59 145.935
YUBILEINY 20 Dec 10:51:17 10:59:47 56° 79° (E) 11:08:15 435.215
O/OREOS (USA 219) 20 Dec 10:53:03 10:57:35 80° 70° (ENE) 11:02:07 437.305
TIGRISAT 20 Dec 10:57:51 11:01:27 26° 264° (W) 11:05:08 435.000
POPSAT HIP 1 20 Dec 11:01:58 11:05:47 33° 262° (W) 11:09:37 437.405
DELFI C3 20 Dec 11:06:26 11:08:58 16° 292° (WNW) 11:11:29 145.870
50 SAT 20 Dec 11:06:41 11:10:49 68° 284° (WNW) 11:14:57 437.505
AISAT 20 Dec 11:06:55 11:11:18 62° 285° (WNW) 11:15:41 437.250
DX 1 20 Dec 11:07:48 11:10:55 20° 292° (WNW) 11:14:02 434.975-435.025
CUBEBUG 1 20 Dec 11:14:04 11:18:19 54° 100° (E) 11:22:33 437.445
JUGNU 20 Dec 11:14:23 11:16:25 12° 166° (SSE) 11:18:27 437.505
HUMSAT D 20 Dec 11:26:46 11:30:37 32° 288° (WNW) 11:34:28 437.325/437.525
UNISAT 6 20 Dec 11:29:10 11:30:44 12° 268° (W) 11:32:19 437.425
DUCHIFAT 1 20 Dec 11:31:35 11:34:09 16° 266° (W) 11:36:44 145.980
BUGSAT 1 20 Dec 11:31:36 11:34:30 19° 265° (W) 11:37:23 437.445
Oscar 19 20 Dec 11:34:12 11:35:50 12° 62° (ENE) 11:37:29 437.125/150
QB50P2 20 Dec 11:46:47 11:47:37 11° 268° (W) 11:48:28 145.880/145.840
VELOX 1 20 Dec 12:01:46 12:04:28 16° 293° (WNW) 12:07:10 145.980
ESTCUBE 1 20 Dec 12:02:04 12:06:15 39° 288° (WNW) 12:10:23 437.505/2401.250
BEESAT 3 20 Dec 12:04:18 12:06:10 13° 108° (ESE) 12:08:03 437.485
TISAT 1 20 Dec 12:20:40 12:24:54 76° 102° (ESE) 12:29:07 437.305
SPROUT 20 Dec 12:23:06 12:27:25 75° 102° (ESE) 12:31:42 437.525
